Regional Weather Roundup
Issued by NWS Northern Indiana

Home | Current Version | Previous Version | Graphics & Text | Print | Product List | Glossary On
Versions: 1 2 3 4 5 6 7 8 9 10 11 12 13 14 15 16 17 18 19 20 21 22 23 24 25 26 27 28 29 30 31 32 33 34 35 36 37 38 39 40 41 42 43 44 45 46 47 48 49 50
000
ASUS43 KIWX 210000
RWRIWX

KIWX WEATHER ROUNDUP
NATIONAL WEATHER SERVICE NORTHERN INDIANA
700 PM EST SAT JAN 20 2018

NOTE: "FAIR" INDICATES FEW OR NO CLOUDS BELOW 12,000 FEET WITH NO
SIGNIFICANT WEATHER AND/OR OBSTRUCTIONS TO VISIBILITY.

* THESE STATIONS ARE NOT UNDER NWS QUALITY CONTROL. THEY ALSO MAY NOT
  REPORT WEATHER SUCH AS PRECIPITATION OR FOG.

INZ001>027-210100-
NORTHERN INDIANA

CITY           SKY/WX    TMP DP  RH WIND       PRES   REMARKS
GARY*          CLOUDY    43  37  81 S6        30.00R
KNOX*          CLOUDY    36  34  93 SW9       30.01R
SOUTH BEND     CLOUDY    38  34  85 SW7       30.02R
6HR MIN TEMP:  37; 6HR MAX TEMP:  40;

GOSHEN         CLOUDY    37  33  85 SW3       30.02R
6HR MIN TEMP:  36; 6HR MAX TEMP:  39;

MONTICELLO*    CLOUDY    38  35  87 S7        30.02R
6HR MIN TEMP:  38; 6HR MAX TEMP:  42;

FORT WAYNE     CLOUDY    39  35  86 SW9       30.04R
6HR MIN TEMP:  38; 6HR MAX TEMP:  41;

PERU/GRISSOM   CLOUDY    38  37  97 SW8       30.03R
6HR MIN TEMP:  38; 6HR MAX TEMP:  42;


$$
INZ028>050-210100-
CENTRAL INDIANA

CITY           SKY/WX    TMP DP  RH WIND       PRES   REMARKS
LAFAYETTE      CLOUDY    39  32  76 SW7       30.03R
6HR MIN TEMP:  39; 6HR MAX TEMP:  41;

MUNCIE*        CLOUDY    42  32  67 SW8       30.06R
6HR MIN TEMP:  41; 6HR MAX TEMP:  45;

INDIANAPOLIS   CLOUDY    41  33  73 S8        30.07R
6HR MIN TEMP:  41; 6HR MAX TEMP:  45;


$$
MIZ043>046-050>051-056>058-064>065-071>073-077>080-210100-
SOUTHWEST LOWER MICHIGAN

CITY           SKY/WX    TMP DP  RH WIND       PRES   REMARKS
BATTLE CREEK   FAIR      35  29  78 S7        30.01R WCI  29
6HR MIN TEMP:  34; 6HR MAX TEMP:  41;

BENTON HARBOR  FAIR      38  31  76 S6        30.00R
6HR MIN TEMP:  38; 6HR MAX TEMP:  43;

HILLSDALE*     FAIR      34  30  86 SW5       30.01R WCI  30
HOLLAND        FAIR      34  29  82 SW3       30.00R
6HR MIN TEMP:  34; 6HR MAX TEMP:  41;

GRAND RAPIDS   FAIR      36  29  75 W5        29.99R
6HR MIN TEMP:  35; 6HR MAX TEMP:  44;

KALAMAZOO      FAIR      37  29  72 S5        30.01R
6HR MIN TEMP:  36; 6HR MAX TEMP:  43;

THREE RIVERS*  FAIR      35  31  85 S5        30.02R WCI  31
6HR MIN TEMP:  35; 6HR MAX TEMP:  42;


$$
OHZ001>008-015>018-024>025-210100-
NORTHWEST OHIO

CITY           SKY/WX    TMP DP  RH WIND       PRES   REMARKS
DEFIANCE       CLOUDY    36  31  82 CALM      30.04R
6HR MIN TEMP:  36; 6HR MAX TEMP:  40;

FINDLAY        FAIR      37  30  75 S12       30.03S
6HR MIN TEMP:  37; 6HR MAX TEMP:  42;

TOLEDO EXPRESS FAIR      38  33  82 SW8       30.03R
6HR MIN TEMP:  38; 6HR MAX TEMP:  41;

TOLEDO METCALF FAIR      35  30  82 SW7       30.05R WCI  29
6HR MIN TEMP:  35; 6HR MAX TEMP:  40;

LIMA           CLOUDY    40  32  73 SW9       30.05R
6HR MIN TEMP:  38; 6HR MAX TEMP:  40;


$$
AND FOR LAKE MICHIGAN COASTAL AND OPEN LAKE BUOY OBSERVATIONS

STATION/POSITION TEMP    WIND        PRES    VSBY  WAVE
                 AIR SEA DIR/SP/G                  HT/PER
                 (F)     (DEG/KT/KT) (MB)    (MI)  (FT/S)
CALUMET HARBOR    42     200/  4/  7 1014.6R
MICHIGAN CITY     41     190/ 11/ 12   N/A
BURNS HARBOR      41     210/  8/ 11 1016.3R
SAINT JOSEPH      39     160/  2/  6 1016.3

$$
&&




USA.gov is the U.S. government's official web portal to all federal, state and local government web resources and services.